Regional Weather Roundup
Issued by NWS Goodland, KS

Home | Current Version | Previous Version | Graphics & Text | Print | Product List | Glossary On
Versions: 1 2 3 4 5 6 7 8 9 10 11 12 13 14 15 16 17 18 19 20 21 22 23 24 25 26 27 28 29 30 31 32 33 34 35 36 37 38 39 40 41 42 43 44 45 46 47 48 49 50
000
ASUS43 KGLD 231259
RWRGLD

GOODLAND FORECAST AREA HOURLY WEATHER ROUNDUP
NATIONAL WEATHER SERVICE GOODLAND KS
700 AM MDT SAT JUL 23 2016

...OFFICIAL OBSERVATIONS...

CITY           SKY/WX    TMP DP  RH WIND       PRES   REMARKS
GOODLAND KS    CLOUDY    70  65  84 SE9       29.96F
HILL CITY KS   CLOUDY    74  69  85 SE9       29.90S
IMPERIAL NEB   CLOUDY    73  64  73 SW5       29.95R
MCCOOK NEB     CLOUDY    77  64  64 S12       29.88R
AKRON CO       CLOUDY    68  60  75 SW7       30.05R
BURLINGTON CO  SUNNY     68  61  78 E3        30.00S
LIMON CO       SUNNY     69  47  45 NW8       30.10R
$$

...UNOFFICIAL OBSERVATIONS...

CITY           SKY/WX    TMP DP  RH WIND       PRES   REMARKS
COLBY KS       SUNNY     70  70 100 SE8       29.95F
LENORA KS        N/A     73  32  22 MISG        N/A
NORTON KS      SUNNY     72  64  78 SE7       29.89S
$$




USA.gov is the U.S. government's official web portal to all federal, state and local government web resources and services.